Weather History for Monroe, LA

Change the Weather History Date:

Friday, June 28, 2013

  Actual Average Record
Temperature  
Mean Temperature 82 °F 82 °F  
Max Temperature 95 °F 93 °F 102 °F (1988)
Min Temperature 68 °F 71 °F 60 °F (2006)
Degree Days  
Heating Degree Days 0 0  
Month to date heating degree days 0 0  
Since 1 June heating degree days 0 0  
Since 1 July heating degree days 2205 2230  
Cooling Degree Days 17 17  
Month to date cooling degree days 431 431  
Year to date cooling degree days 781 866  
Since 1 June cooling degree days 431 431  
Growing Degree Days 31 (Base 50)    
Moisture  
Dew Point 72 °F    
Average Humidity 73    
Maximum Humidity 94    
Minimum Humidity 52    
Precipitation  
Precipitation 1.09 in 0.16 in 2.20 in (1976)
Month to date precipitation 5.45 4.37  
Year to date precipitation 30.46 28.42  
Snow  
Snow 0.00 in - - ()
Month to date snowfall 0.0  
Since 1 June snowfall 0.0  
Since 1 July snowfall 0.3  
Snow Depth 0.00 in    
Sea Level Pressure  
Sea Level Pressure 29.84 in    
Wind  
Wind Speed 9 mph (WSW)    
Max Wind Speed 62 mph    
Max Gust Speed 77 mph    
Visibility 9 miles    
Events Fog , Rain , Thunderstorm    
T = Trace of Precipitation, MM = Missing Value Source: NWS Daily Summary

Daily Weather History Graph

Daily Weather History Graph

Search for Another Location

Airport:

Trip Planner

Search our weather history database for the weather conditions in past years. The results will help you decide how hot, cold, wet, or windy it might be!

Date:

Astronomy

Jun. 28, 2013 Rise Set
Actual Time 6:03 AM CDT 8:19 PM CDT
Civil Twilight 5:34 AM CDT 8:47 PM CDT
Nautical Twilight 5:00 AM CDT 9:22 PM CDT
Astronomical Twilight 4:22 AM CDT 10:00 PM CDT
Moon No Moon Rise 11:50 AM CDT (6/28)
Length of Visible Light 15h 13m
Length of Day
14h 16m
Waning Gibbous, 66% of the Moon is Illuminated
Jun 28
Waning Gibbous
Jun 29
Last Quarter
Jul 8
New
Jul 15
First Quarter
Jul 22
Full

Hourly Weather History & Observations

Time (CDT) Temp. Heat Index Dew Point Humidity Pressure Visibility Wind Dir Wind Speed Gust Speed Precip Events Conditions
12:53 AM 81.0 °F 87.3 °F 75.9 °F 85% 29.92 in 10.0 mi SSW 4.6 mph - N/A   Clear
1:53 AM 81.0 °F 86.7 °F 75.0 °F 82% 29.90 in 10.0 mi SSW 6.9 mph - N/A   Clear
2:53 AM 79.0 °F - 73.9 °F 84% 29.91 in 10.0 mi Calm Calm - N/A   Clear
3:53 AM 77.0 °F - 75.0 °F 94% 29.90 in 10.0 mi South 3.5 mph - N/A   Clear
4:53 AM 78.1 °F - 73.0 °F 84% 29.91 in 10.0 mi Calm Calm - N/A   Clear
5:53 AM 78.1 °F - 73.0 °F 84% 29.90 in 10.0 mi SSW 4.6 mph - N/A   Clear
6:53 AM 81.0 °F 85.8 °F 73.0 °F 77% 29.91 in 10.0 mi West 12.7 mph - N/A   Clear
7:53 AM 82.0 °F 87.4 °F 73.0 °F 74% 29.89 in 10.0 mi WSW 9.2 mph - N/A   Clear
8:53 AM 84.0 °F 90.2 °F 73.0 °F 69% 29.89 in 10.0 mi WSW 13.8 mph - N/A   Clear
9:53 AM 87.1 °F 94.5 °F 73.0 °F 63% 29.90 in 10.0 mi West 17.3 mph - N/A   Clear
10:53 AM 89.1 °F 97.0 °F 73.0 °F 59% 29.90 in 10.0 mi West 11.5 mph - N/A   Clear
11:53 AM 89.1 °F 96.0 °F 72.0 °F 57% 29.89 in 10.0 mi NW 12.7 mph - N/A   Clear
12:53 PM 91.0 °F 99.3 °F 73.0 °F 55% 29.87 in 10.0 mi WSW 9.2 mph 18.4 mph N/A   Clear
1:53 PM 91.9 °F 100.7 °F 73.0 °F 54% 29.84 in 10.0 mi SW 11.5 mph 18.4 mph N/A   Clear
2:53 PM 93.9 °F 104.0 °F 73.9 °F 52% 29.81 in 10.0 mi SW 10.4 mph 17.3 mph N/A   Clear
3:53 PM 93.9 °F 103.4 °F 73.0 °F 51% 29.78 in 10.0 mi SW 12.7 mph 19.6 mph N/A   Clear
4:53 PM 93.9 °F 104.0 °F 73.9 °F 52% 29.78 in 10.0 mi West 12.7 mph - N/A   Clear
5:53 PM 93.9 °F 105.4 °F 75.0 °F 54% 29.76 in 10.0 mi SW 11.5 mph - N/A   Partly Cloudy
6:53 PM 91.9 °F 103.9 °F 75.9 °F 59% 29.75 in 10.0 mi SW 9.2 mph - N/A   Clear
7:53 PM 89.1 °F 99.1 °F 75.0 °F 63% 29.75 in 10.0 mi SSW 4.6 mph - N/A   Clear
8:06 PM 87.8 °F 97.6 °F 75.2 °F 66% 29.75 in 10.0 mi South 3.5 mph - N/A Thunderstorm Scattered Clouds
8:28 PM 75.2 °F - 68.0 °F 78% 29.84 in 1.2 mi NNW 41.4 mph 57.5 mph 0.19 in Rain , Thunderstorm Heavy Thunderstorms and Rain
8:34 PM 69.8 °F - 66.2 °F 88% 29.79 in 0.5 mi NNW 57.5 mph 77.1 mph 0.57 in Fog , Rain , Thunderstorm Light Thunderstorms and Rain
8:46 PM 73.4 °F - 64.4 °F 73% 29.79 in 1.0 mi West 17.3 mph 73.6 mph 1.01 in Rain , Thunderstorm Heavy Thunderstorms and Rain
8:53 PM 72.0 °F - 66.9 °F 84% 29.77 in 3.0 mi North 9.2 mph - 1.07 in Rain , Thunderstorm Heavy Thunderstorms and Rain
9:05 PM 69.8 °F - 69.8 °F 100% 29.77 in 10.0 mi SSE 3.5 mph - 0.01 in Rain , Thunderstorm Light Thunderstorms and Rain
9:30 PM 71.6 °F - 71.6 °F 100% 29.80 in 10.0 mi NNE 4.6 mph - 0.02 in   Scattered Clouds
9:49 PM 71.6 °F - 71.6 °F 100% 29.80 in 10.0 mi Calm Calm - 0.02 in Thunderstorm Mostly Cloudy
9:53 PM 71.1 °F - 71.1 °F 100% 29.80 in 10.0 mi Calm Calm - 0.02 in Thunderstorm Mostly Cloudy
10:37 PM - - - N/A% 29.83 in - North - - N/A   Unknown
10:53 PM - - - N/A% 29.83 in - North - - N/A   Unknown
11:53 PM - - - N/A% 29.81 in - North - - N/A   Unknown